Date,TemperatureHighF,TemperatureAvgF,TemperatureLowF,DewpointHighF,DewpointAvgF,DewpointLowF,HumidityHigh,HumidityAvg,HumidityLow,PressureMaxIn,PressureMinIn,WindSpeedMaxMPH,WindSpeedAvgMPH,GustSpeedMaxMPH,PrecipitationSumIn
2013-5-1,78,65,45,49,15,-10,100,31,4,29.93,29.66,30,14,37,0.00
2013-5-2,74,67,60,2,-3,-8,8,6,4,30.07,29.92,29,17,40,0.00
2013-5-3,84,69,52,16,4,-6,12,8,5,29.94,29.63,17,8,29,0.00
2013-5-4,78,65,48,46,23,4,93,26,9,29.63,29.49,22,11,33,0.00
2013-5-5,58,50,45,46,41,35,98,72,44,29.75,29.55,21,11,33,0.00
2013-5-6,57,49,45,47,42,40,96,77,56,29.84,29.70,22,10,33,0.12
2013-5-7,59,50,42,44,42,37,100,75,46,29.91,29.81,17,12,26,0.00
2013-5-8,64,52,42,45,42,38,97,71,43,29.95,29.88,20,11,27,0.00
2013-5-9,72,56,44,51,43,35,88,65,26,29.95,29.85,16,4,25,0.01
2013-5-10,82,64,51,47,42,30,82,49,16,29.97,29.83,16,4,23,0.00
2013-5-11,87,74,59,41,35,23,46,27,10,29.94,29.82,15,5,25,0.00
2013-5-12,90,77,64,40,35,26,38,23,12,29.92,29.76,16,4,22,0.00
2013-5-13,90,79,64,40,32,26,39,20,11,29.82,29.71,25,7,31,0.00
2013-5-14,84,72,59,37,24,7,40,19,6,29.77,29.67,26,10,37,0.00
2013-5-15,78,66,55,49,42,36,71,43,26,29.81,29.73,21,9,27,0.00
2013-5-16,72,60,51,50,44,34,89,57,29,29.77,29.69,20,12,27,0.00
2013-5-17,69,57,49,50,44,39,96,65,37,29.82,29.70,21,9,31,0.00
2013-5-18,76,64,49,42,30,19,66,30,15,29.86,29.77,21,8,27,0.00
2013-5-19,82,66,50,33,24,14,36,21,11,29.84,29.69,15,5,24,0.00
2013-5-20,82,70,56,41,27,16,39,23,10,29.85,29.72,22,8,30,0.00
2013-5-21,83,70,59,46,32,24,55,26,14,29.77,29.59,23,9,32,0.00
2013-5-22,73,60,48,49,42,31,83,54,27,29.63,29.55,22,11,33,0.00
2013-5-23,65,55,46,45,35,15,80,47,26,29.77,29.60,22,14,32,0.00
2013-5-24,62,48,42,42,31,25,81,53,26,29.81,29.73,15,7,20,0.00
2013-5-25,66,53,46,45,41,36,86,66,32,29.81,29.76,18,10,24,0.00
2013-5-26,71,63,46,48,43,36,87,53,30,29.85,29.80,21,13,29,0.00
2013-5-27,81,65,50,43,33,24,68,35,15,29.82,29.68,22,6,27,0.00
2013-5-28,74,63,52,44,38,26,66,41,23,29.69,29.61,24,9,31,0.00
2013-5-29,80,67,54,44,33,18,53,30,13,29.70,29.54,20,7,29,0.00
2013-5-30,87,72,57,48,32,18,53,26,10,29.69,29.58,17,6,27,0.00
2013-5-31,91,74,56,51,30,16,53,24,9,29.73,29.59,21,6,29,0.00